TimeEST,TemperatureF,Dew PointF,Humidity,Sea Level PressureIn,VisibilityMPH,Wind Direction,Wind SpeedMPH,Gust SpeedMPH,PrecipitationIn,Events,Conditions,WindDirDegrees,DateUTC
12:56 AM,50.0,45.0,83,29.99,10.0,WSW,6.9,-,N/A,,Clear,250,2013-02-06 05:56:00
1:56 AM,50.0,45.0,83,29.99,10.0,West,5.8,-,N/A,,Clear,260,2013-02-06 06:56:00
2:56 AM,48.0,46.0,93,29.99,8.0,West,4.6,-,N/A,,Clear,280,2013-02-06 07:56:00
3:56 AM,46.9,45.0,93,30.00,10.0,West,4.6,-,N/A,,Clear,270,2013-02-06 08:56:00
4:56 AM,44.1,41.0,89,30.03,10.0,SSW,4.6,-,N/A,,Clear,200,2013-02-06 09:56:00
5:56 AM,42.1,39.9,92,30.05,8.0,SSW,6.9,-,N/A,,Clear,200,2013-02-06 10:56:00
6:56 AM,43.0,41.0,93,30.08,-9999.0,SW,6.9,-,N/A,,Clear,230,2013-02-06 11:56:00
7:56 AM,44.1,42.1,93,30.12,-9999.0,WSW,4.6,-,N/A,,Clear,240,2013-02-06 12:56:00
8:56 AM,52.0,44.1,74,30.14,-9999.0,WNW,5.8,-,N/A,,Clear,290,2013-02-06 13:56:00
9:56 AM,53.1,43.0,69,30.16,-9999.0,WNW,6.9,-,N/A,,Clear,290,2013-02-06 14:56:00
10:56 AM,57.9,37.0,46,30.17,-9999.0,North,9.2,-,N/A,,Clear,350,2013-02-06 15:56:00
11:56 AM,61.0,37.0,41,30.17,10.0,NNW,8.1,-,N/A,,Clear,340,2013-02-06 16:56:00
12:56 PM,60.1,35.1,39,30.15,10.0,NE,8.1,-,N/A,,Clear,50,2013-02-06 17:56:00
1:56 PM,60.1,34.0,38,30.14,10.0,NE,10.4,-,N/A,,Clear,50,2013-02-06 18:56:00
2:56 PM,59.0,39.0,48,30.15,10.0,ENE,6.9,-,N/A,,Clear,60,2013-02-06 19:56:00
3:56 PM,59.0,37.0,44,30.15,10.0,ENE,5.8,-,N/A,,Clear,60,2013-02-06 20:56:00
4:56 PM,57.9,37.9,47,30.16,10.0,ENE,3.5,-,N/A,,Clear,60,2013-02-06 21:56:00
5:56 PM,52.0,42.1,69,30.19,10.0,ENE,11.5,-,N/A,,Clear,70,2013-02-06 22:56:00
6:56 PM,51.1,45.0,80,30.22,10.0,ENE,12.7,-,N/A,,Clear,60,2013-02-06 23:56:00
7:56 PM,50.0,45.0,83,30.25,10.0,NE,13.8,-,N/A,,Clear,50,2013-02-07 00:56:00
8:56 PM,50.0,44.1,80,30.27,10.0,NE,11.5,-,N/A,,Clear,40,2013-02-07 01:56:00
9:56 PM,48.9,45.0,86,30.27,10.0,NE,12.7,18.4,N/A,,Clear,40,2013-02-07 02:56:00
10:56 PM,50.0,44.1,80,30.27,10.0,NE,12.7,-,N/A,,Clear,40,2013-02-07 03:56:00
11:56 PM,50.0,45.0,83,30.28,10.0,NE,11.5,-,N/A,,Clear,50,2013-02-07 04:56:00